VIR250 EGLL-EDDF

Flight info

Callsign VIR250
Flight time N/A
Altitude 35000
Route BPK Q295 MATCH DCT REDFA DCT TACHA DCT NOLRU DCT DIXAT DIXAT1A
Aircraft A339/H-SADE1E2E3GHIJ3J5M1P2RWXY/LB2D1

Departure

Time 2026-05-07 13:10
Airport London Heathrow Airport (EGLL)

Arrival

Time N/A
Airport Frankfurt Main Airport (EDDF)
Time Latitude Longitude Altitude Speed Heading
2026-05-07 12:56 51.47380 -0.48230 96 ft 0 kts 90°
2026-05-07 13:03 51.47380 -0.48243 97 ft 2 kts 90°
2026-05-07 13:03 51.47380 -0.48268 97 ft 2 kts 90°
2026-05-07 13:03 51.47380 -0.48291 97 ft 2 kts 90°
2026-05-07 13:03 51.47380 -0.48315 97 ft 2 kts 90°
2026-05-07 13:04 51.47382 -0.48340 96 ft 2 kts 119°
2026-05-07 13:04 51.47391 -0.48357 96 ft 2 kts 155°
2026-05-07 13:04 51.47402 -0.48363 96 ft 0 kts 180°
2026-05-07 13:04 51.47407 -0.48363 96 ft 0 kts 181°
2026-05-07 13:06 51.47400 -0.48363 96 ft 2 kts 180°
2026-05-07 13:06 51.47374 -0.48361 96 ft 5 kts 178°
2026-05-07 13:06 51.47322 -0.48357 96 ft 9 kts 178°
2026-05-07 13:07 51.47243 -0.48357 96 ft 12 kts 181°
2026-05-07 13:07 51.47154 -0.48359 96 ft 13 kts 181°
2026-05-07 13:07 51.47059 -0.48357 96 ft 14 kts 179°
2026-05-07 13:07 51.46957 -0.48353 95 ft 14 kts 181°
2026-05-07 13:08 51.46851 -0.48355 95 ft 15 kts 180°
2026-05-07 13:08 51.46755 -0.48381 95 ft 11 kts 223°
2026-05-07 13:08 51.46693 -0.48459 94 ft 11 kts 200°
2026-05-07 13:08 51.46610 -0.48470 94 ft 12 kts 182°
2026-05-07 13:09 51.46518 -0.48466 93 ft 13 kts 177°
2026-05-07 13:09 51.46468 -0.48404 93 ft 8 kts 79°
2026-05-07 13:09 51.46478 -0.48310 94 ft 9 kts 87°
2026-05-07 13:09 51.46481 -0.48023 94 ft 60 kts 91°
2026-05-07 13:10 51.46481 -0.46931 94 ft 131 kts 91°
2026-05-07 13:10 51.46464 -0.45209 315 ft 167 kts 93°
2026-05-07 13:10 51.46491 -0.43391 1054 ft 166 kts 90°
2026-05-07 13:10 51.46629 -0.41613 1819 ft 163 kts 69°
2026-05-07 13:11 51.47260 -0.40068 2301 ft 175 kts 52°
2026-05-07 13:11 51.48090 -0.38532 2698 ft 191 kts 50°
2026-05-07 13:11 51.49018 -0.36845 3102 ft 208 kts 50°
2026-05-07 13:11 51.50006 -0.35014 3492 ft 227 kts 51°
2026-05-07 13:12 51.51053 -0.33039 3929 ft 245 kts 51°
2026-05-07 13:12 51.52176 -0.30812 4411 ft 263 kts 59°
2026-05-07 13:12 51.52907 -0.28098 5114 ft 269 kts 73°
2026-05-07 13:12 51.53448 -0.25239 5691 ft 271 kts 74°
2026-05-07 13:13 51.53992 -0.22350 5945 ft 271 kts 73°
2026-05-07 13:13 51.54730 -0.19579 5964 ft 272 kts 52°
2026-05-07 13:13 51.56211 -0.17740 5953 ft 272 kts 21°
2026-05-07 13:13 51.58066 -0.17264 5973 ft 271 kts 359°
2026-05-07 13:14 51.59956 -0.17190 5986 ft 271 kts 10°
2026-05-07 13:14 51.61776 -0.16544 6002 ft 270 kts 13°
2026-05-07 13:14 51.63620 -0.15819 6004 ft 270 kts 14°
2026-05-07 13:14 51.65441 -0.15046 6005 ft 270 kts 15°
2026-05-07 13:15 51.67228 -0.14250 6006 ft 269 kts 16°
2026-05-07 13:15 51.69052 -0.13417 6005 ft 270 kts 16°
2026-05-07 13:15 51.70823 -0.12509 6021 ft 272 kts 26°
2026-05-07 13:15 51.72214 -0.10423 6422 ft 281 kts 63°
2026-05-07 13:16 51.72748 -0.07453 7377 ft 276 kts 78°
2026-05-07 13:16 51.73176 -0.04445 8176 ft 279 kts 76°
2026-05-07 13:16 51.73671 -0.01392 8915 ft 283 kts 75°
2026-05-07 13:16 51.74205 0.01676 9655 ft 287 kts 74°
2026-05-07 13:17 51.74760 0.04759 10397 ft 291 kts 73°
2026-05-07 13:17 51.75341 0.07946 10872 ft 304 kts 73°
2026-05-07 13:17 51.75954 0.11302 11218 ft 322 kts 73°
2026-05-07 13:17 51.76606 0.14863 11545 ft 340 kts 73°
2026-05-07 13:18 51.77234 0.18652 11857 ft 358 kts 77°
2026-05-07 13:18 51.77734 0.22652 12238 ft 372 kts 79°
2026-05-07 13:18 51.78252 0.26778 12884 ft 379 kts 77°
2026-05-07 13:18 51.78885 0.30949 13589 ft 381 kts 76°
2026-05-07 13:19 51.79541 0.35120 14229 ft 388 kts 76°
2026-05-07 13:19 51.80206 0.39313 14876 ft 390 kts 76°
2026-05-07 13:19 51.80880 0.43579 15468 ft 395 kts 76°
2026-05-07 13:19 51.81569 0.47919 16102 ft 401 kts 75°
2026-05-07 13:20 51.82263 0.52303 16777 ft 405 kts 75°
2026-05-07 13:20 51.82962 0.56715 17429 ft 409 kts 75°
2026-05-07 13:20 51.83669 0.61184 18075 ft 414 kts 75°
2026-05-07 13:20 51.84386 0.65741 18709 ft 418 kts 76°
2026-05-07 13:21 51.85109 0.70351 19344 ft 422 kts 76°
2026-05-07 13:21 51.85846 0.75068 19978 ft 426 kts 76°
2026-05-07 13:21 51.86333 0.78199 20386 ft 429 kts 76°
2026-05-07 13:21 51.86888 0.81768 20843 ft 432 kts 76°